FW4287 Weather Reports


Display with metric or nautical units.
time (UTC)temp
F
wind
direction
speed
MPH
gust
MPH
rain 1hr
in
rain 24hr
in
rain mn
in
humidity
%
barometer
mb
20201130231532 41 200 10.0 0.0 0.00 0.45 0.45 86 1025.2
20201130230131 41 192 9.0 0.0 0.00 0.45 0.45 84 1024.8
20201130224534 41 199 13.0 0.0 0.00 0.45 0.45 82 1024.5
20201130223034 42 198 12.0 0.0 0.00 0.45 0.45 81 1024.1
20201130221533 42 204 13.0 0.0 0.00 0.45 0.45 85 1024.1
20201130220116 41 201 10.0 0.0 0.00 0.45 0.45 87 1023.8
20201130214536 41 198 12.0 0.0 0.00 0.45 0.45 88 1023.8
20201130213035 42 193 10.0 0.0 0.00 0.45 0.45 86 1023.4
20201130211546 42 197 9.0 0.0 0.00 0.45 0.45 84 1023.4
20201130210043 43 204 11.0 0.0 0.00 0.45 0.45 83 1023.4
20201130204534 42 206 10.0 0.0 0.00 0.45 0.45 84 1023.1
20201130203031 43 203 11.0 0.0 0.00 0.45 0.45 86 1023.1
20201130201546 42 209 8.0 0.0 0.00 0.45 0.45 89 1023.1
20201130200036 42 194 8.0 0.0 0.00 0.45 0.45 91 1022.7
20201130194528 41 178 9.0 0.0 0.00 0.45 0.45 93 1022.4
20201130193031 41 187 9.0 0.0 0.01 0.45 0.45 93 1022.4
20201130191543 41 186 8.0 0.0 0.02 0.45 0.45 93 1022.0
20201130190044 41 187 8.0 0.0 0.03 0.45 0.45 93 1021.7
20201130184531 41 179 11.0 0.0 0.03 0.45 0.45 94 1021.3
20201130183040 41 196 11.0 0.0 0.02 0.44 0.44 94 1021.3
20201130181538 42 242 5.0 0.0 0.02 0.43 0.43 94 1021.0
20201130180036 42 226 6.0 0.0 0.02 0.42 0.42 93 1020.6
20201130174537 42 211 7.0 0.0 0.02 0.42 0.42 94 1020.6
20201130173034 41 222 5.0 0.0 0.03 0.42 0.42 95 1020.2
20201130171532 42 236 6.0 0.0 0.02 0.41 0.41 95 1019.9
20201130170051 41 222 9.0 0.0 0.02 0.40 0.40 96 1019.5
20201130164532 40 199 5.0 0.0 0.03 0.40 0.40 98 1019.2
20201130163038 39 197 5.0 0.0 0.08 0.39 0.39 98 1018.5
20201130161544 39 182 7.0 0.0 0.11 0.39 0.39 98 1018.1
20201130160050 40 173 10.0 0.0 0.11 0.38 0.38 98 1018.1
20201130154534 38 187 9.0 0.0 0.10 0.37 0.37 99 1017.8
20201130153037 37 164 7.0 0.0 0.06 0.31 0.31 100 1017.4
20201130151535 35 171 6.0 0.0 0.06 0.28 0.28 100 1017.4
20201130150037 33 194 3.0 0.0 0.05 0.27 0.27 100 1017.0
20201130144530 33 157 0.0 0.0 0.07 0.27 0.27 100 1016.7
20201130143048 33 84 2.0 0.0 0.08 0.25 0.25 100 1017.4
20201130141531 33 282 3.0 0.0 0.09 0.22 0.22 100 1017.4
20201130140035 33 204 2.0 0.0 0.12 0.22 0.22 100 1017.4
20201130134533 33 197 5.0 0.0 0.14 0.20 0.20 100 1017.0
20201130133035 33 163 5.0 0.0 0.16 0.17 0.17 100 1016.7
20201130131534 33 183 6.0 0.0 0.13 0.13 0.13 100 1016.3
20201130130034 33 177 6.0 0.0 0.10 0.10 0.10 100 1016.3
20201130124534 33 195 3.0 0.0 0.06 0.06 0.06 100 1016.3
20201130123035 33 337 0.0 0.0 0.01 0.01 0.01 100 1016.3
20201130121540 33 82 1.0 0.0 0.00 0.00 0.00 100 1017.0
20201130120052 33 203 2.0 0.0 0.00 0.00 0.00 100 1017.4
20201130114533 33 215 0.0 0.0 0.00 0.00 0.00 100 1016.7
20201130111538 33 207 0.0 0.0 0.00 0.00 0.00 100 1016.7
20201130110047 33 218 1.0 0.0 0.00 0.00 0.00 100 1017.4
20201130104539 33 360 0.0 0.0 0.00 0.00 0.00 100 1017.8
20201130103034 33 5 0.0 0.0 0.00 0.00 0.00 100 1017.8
20201130101540 33 66 0.0 0.0 0.00 0.00 0.00 100 1018.1
20201130100041 33 209 2.0 0.0 0.00 0.00 0.00 100 1018.1
20201130094532 33 266 2.0 0.0 0.00 0.00 0.00 100 1018.1
20201130093033 33 238 0.0 0.0 0.00 0.00 0.00 100 1018.5
20201130091530 33 273 0.0 0.0 0.00 0.00 0.00 100 1018.8
20201130090038 33 26 0.0 0.0 0.00 0.00 0.00 100 1019.2
20201130084531 33 45 0.0 0.0 0.00 0.00 0.00 100 1019.5
20201130083030 33 45 0.0 0.0 0.00 0.00 0.00 100 1019.5
20201130081534 32 162 0.0 0.0 0.00 0.00 0.00 100 1019.5
20201130080035 32 225 0.0 0.0 0.00 0.00 0.00 100 1019.9
20201130074536 32 76 1.0 0.0 0.00 0.00 0.00 99 1019.5
20201130073032 31 171 0.0 0.0 0.00 0.00 0.00 99 1020.2
20201130071533 31 180 0.0 0.0 0.00 0.00 0.00 99 1020.2
20201130070037 31 180 0.0 0.0 0.00 0.00 0.00 99 1020.2
20201130064533 31 180 0.0 0.0 0.00 0.00 0.00 99 1020.6
20201130063036 31 180 0.0 0.0 0.00 0.00 0.00 99 1021.0
20201130061539 31 180 0.0 0.0 0.00 0.00 0.00 99 1021.3
20201130060044 31 180 0.0 0.0 0.00 0.00 0.00 99 1021.3
20201130054529 31 180 0.0 0.0 0.00 0.00 0.00 99 1021.3
20201130053039 30 180 0.0 0.0 0.00 0.00 0.00 99 1021.7
20201130051530 30 180 0.0 0.0 0.00 0.00 0.00 99 1021.7
20201130050048 30 180 0.0 0.0 0.00 0.00 0.00 99 1021.7
20201130044533 30 180 0.0 0.0 0.00 0.00 0.00 99 1021.7
20201130043033 30 180 0.0 0.0 0.00 0.00 0.00 99 1021.7
20201130041532 31 180 0.0 0.0 0.00 0.00 0.00 98 1022.0
20201130040034 31 180 0.0 0.0 0.00 0.00 0.00 98 1022.0
20201130034537 31 180 0.0 0.0 0.00 0.00 0.00 98 1022.0
20201130033035 30 180 0.0 0.0 0.00 0.00 0.00 98 1022.0
20201130031537 30 180 0.0 0.0 0.00 0.00 0.00 98 1022.4
20201130030041 30 243 0.0 0.0 0.00 0.00 0.00 97 1022.4
20201130024531 30 247 0.0 0.0 0.00 0.00 0.00 97 1022.4
20201130023035 30 116 0.0 0.0 0.00 0.00 0.00 97 1022.4
20201130021534 30 112 0.0 0.0 0.00 0.00 0.00 97 1022.4
20201130020040 30 112 0.0 0.0 0.00 0.00 0.00 96 1022.4
20201130014534 30 112 0.0 0.0 0.00 0.00 0.00 96 1022.4
20201130013035 31 112 0.0 0.0 0.00 0.00 0.00 95 1022.4
20201130011532 32 112 0.0 0.0 0.00 0.00 0.00 94 1022.4
20201130010038 33 304 1.0 0.0 0.00 0.00 0.00 93 1022.7
20201130004536 36 88 0.0 0.0 0.00 0.00 0.00 92 1023.1
20201130003031 37 7 1.0 0.0 0.00 0.00 0.00 92 1023.1
20201130001532 38 153 1.0 0.0 0.00 0.00 0.00 91 1023.4
20201130000036 38 147 1.0 0.0 0.00 0.00 0.00 91 1023.4
20201129234531 39 166 1.0 0.0 0.00 0.00 0.00 91 1023.8
20201129233036 39 145 0.0 0.0 0.00 0.00 0.00 91 1023.8